User: anonymous   Login
Location: �couen
(49.0206°N, 2.3831°E)
Time: 20:36:33
(UTC+00:00)
Language:

Cosmos 1758 - Orbit

View from above orbital plane
View from above orbital plane
View from above satellite
View from above satellite

Ground track
Ground track

The orbit data is extracted from the following two-line orbital elements,

1 16791U 86046A   22016.99822984  .00001195  00000-0  80631-4 0  9998
2 16791  82.4694 198.9128 0017079 142.3420 217.9006 15.05609525937571
Epoch (UTC): 16 January 2022 23:57:27
Eccentricity: 0.0017079
inclination: 82.4694°
perigee height: 538 km
apogee height: 561 km
right ascension of ascending node: 198.9128°
argument of perigee: 142.3420°
revolutions per day: 15.05609525
mean anomaly at epoch: 217.9006°
orbit number at epoch: 93757

The dashed part of the orbit path shows where the satellite is in the earth's shadow,  

DLR